This demonstration page uses our WeatherBlox Daily Observations layout. Learn more.

Left ArrowRight Arrow

Hourly Observations for December 16, 2019

Temp ( °F °C ) Dew Point ( °F °C ) Humidity (%) Winds ( mph kmh ) Pressure ( in mb ) Visibility ( mi km ) Precip ( " mm )
12:53 am 00:53 Clear 13 -10.6 10 -12.2 88 88 SW 16 26 30.08 1019 10 16 0.00 0.00
1:53 am 01:53 Clear 11 -11.7 8 -13.3 88 88 WSW 14 22 30.11 1020 10 16 0.00 0.00
2:53 am 02:53 Clear 10 -12.2 8 -13.3 92 92 SW 15 24 30.14 1021 10 16 0.00 0.00
3:53 am 03:53 Clear 8 -13.3 5 -15 87 87 SW 16 26 30.16 1021 10 16 0.00 0.00
4:53 am 04:53 Clear 8 -13.3 4 -15.6 83 83 SW 16 26 30.17 1022 10 16 0.00 0.00
5:53 am 05:53 Clear 10 -12.2 5 -15 80 80 SW 15 24 30.19 1022 10 16 0.00 0.00
6:53 am 06:53 Clear 10 -12.2 6 -14.4 84 84 SW 15 24 30.22 1023 10 16 0.00 0.00
7:53 am 07:53 Clear 10 -12.2 5 -15 80 80 SW 17 28 30.24 1024 10 16 0.00 0.00
8:53 am 08:53 Sunny 11 -11.7 6 -14.4 81 81 SW 17 28 30.26 1025 10 16 0.00 0.00
9:53 am 09:53 Sunny 13 -10.6 7 -13.9 77 77 SW 15 24 30.27 1025 10 16 0.00 0.00
10:53 am 10:53 Sunny 20 -6.7 11 -11.7 68 68 SW 17 28 30.26 1025 10 16 0.00 0.00
11:53 am 11:53 Sunny 21 -6.1 12 -11.1 68 68 WSW 18 30 30.25 1024 10 16 0.00 0.00
12:53 pm 12:53 Sunny 24 -4.4 14 -10 65 65 SW 21 33 30.24 1024 10 16 0.00 0.00
1:53 pm 13:53 Sunny 26 -3.3 15 -9.4 63 63 SW 24 39 30.22 1024 10 16 0.00 0.00
2:53 pm 14:53 Sunny 27 -2.8 16 -8.9 63 63 SW 20 31 30.21 1023 10 16 0.00 0.00
3:53 pm 15:53 Sunny 25 -3.9 15 -9.4 66 66 SW 16 26 30.21 1023 10 16 0.00 0.00
4:53 pm 16:53 Clear 23 -5 14 -10 68 68 SW 17 28 30.21 1023 10 16 0.00 0.00
5:53 pm 17:53 Clear 24 -4.4 15 -9.4 68 68 SW 21 33 30.17 1022 10 16 0.00 0.00
6:53 pm 18:53 Partly Cloudy 28 -2.2 18 -7.8 66 66 SW 25 41 30.15 1021 10 16 0.00 0.00
7:53 pm 19:53 Cloudy 29 -1.7 19 -7.2 66 66 SW 28 44 30.13 1020 10 16 0.00 0.00
8:53 pm 20:53 Mostly Clear 29 -1.7 20 -6.7 69 69 SW 28 44 30.13 1020 10 16 0.00 0.00
9:53 pm 21:53 Partly Cloudy 30 -1.1 20 -6.7 66 66 SW 24 39 30.12 1020 10 16 0.00 0.00
10:53 pm 22:53 Clear 31 -0.6 21 -6.1 67 67 SW 21 33 30.13 1020 10 16 0.00 0.00
11:53 pm 23:53 Mostly Clear 31 -0.6 21 -6.1 67 67 SW 22 35 30.13 1020 10 16 0.00 0.00

Powered by AerisWeather